Regional Weather Roundup
Issued by NWS

Home | Current Version | Previous Version | Text Only | Print | Product List | Glossary On
Versions: 1 2 3 4 5 6 7 8 9 10 11 12 13 14 15 16 17 18 19 20 21 22 23 24 25 26 27 28 29 30 31 32 33 34 35 36 37 38 39 40 41 42 43 44 45 46 47 48 49 50
000
ASUS44 KOUN 201010
RWROK

WEATHER ROUNDUP FOR OKLAHOMA
NATIONAL WEATHER SERVICE NORMAN OK
500 AM CDT SUN APR 20 2014

NOTE: "FAIR" INDICATES FEW OR NO CLOUDS BELOW 12,000 FEET WITH NO
      SIGNIFICANT WEATHER AND/OR OBSTRUCTIONS TO VISIBILITY.

OKZ001>007-009>012-014-015-017-201100-
NORTHWEST OKLAHOMA AND THE PANHANDLE

CITY           SKY/WX    TMP DP  RH WIND       PRES   REMARKS
GAGE           CLOUDY    60  49  66 S18       30.03R
ENID/VANCE AFB MOCLDY    59  56  91 S9        30.05S
ENID/WOODRING  MOCLDY    54  50  87 S3        30.06S
$$

OKZ016-021>023-033>039-044-045-201100-
SOUTHWEST OKLAHOMA

CITY           SKY/WX    TMP DP  RH WIND       PRES   REMARKS
LAWTON/REGL    LGT RAIN  59  54  83 SE5       30.08R
LAWTON/FT SILL LGT RAIN  61  54  77 S7        30.07R
FREDERICK      LGT RAIN  60  56  86 SE5       30.04R
CLINTON        CLOUDY    61  51  70 S10       30.07S
HOBART         CLOUDY    62  52  69 S15       30.06R
ALTUS AFB      DRIZZLE   60  55  84 SE13      30.05R
$$

OKZ018>020-024>031-201100-
CENTRAL OKLAHOMA

CITY           SKY/WX    TMP DP  RH WIND       PRES   REMARKS
OKLAHOMA CITY  CLOUDY    56  50  80 S5        30.07F
OKC/WILEY POST MOCLDY    59  48  67 S10       30.06F
OKC/TINKER AFB MOCLDY    57  52  82 S8        30.08S
STILLWATER     PTCLDY    58  50  75 SE8       30.08F
GUTHRIE        MOCLDY    62  51  67 S8        30.07S
$$

OKZ008-013-054>072-201100-
NORTHEAST OKLAHOMA

CITY           SKY/WX    TMP DP  RH WIND       PRES   REMARKS
TULSA          MOCLDY    61  51  70 SE8       30.09F
TULSA/JONES    MOCLDY    55  49  80 CALM      30.10F
PONCA CITY     MOCLDY    63  49  60 S10       30.07F
BARTLESVILLE   MOCLDY    52  48  86 CALM      30.11S
MUSKOGEE       PTCLDY    56  51  84 SE7       30.13F
$$

OKZ032-040>043-046>053-073>077-201100-
SOUTH CENTRAL/SOUTHEAST OKLAHOMA

CITY           SKY/WX    TMP DP  RH WIND       PRES   REMARKS
ARDMORE/DWNTWN   N/A     59  52  77 CALM      30.10R
MCALESTER      PTCLDY    58  49  72 E3        30.12F
$$




USA.gov is the U.S. government's official web portal to all federal, state and local government web resources and services.